Location: Altenst�hlen
(53.5567°N, 8.9425°E)
Time: 07:53:50
(UTC+00:00)

STARLINK-45 - Pass Details

Date: 23 October 2019
Orbit: 548 x 551 km, 53.0° (Epoch: 17 November)

Event Time Altitude Azimuth Distance (km) Brightness Sun altitude
Rises 17:54:17 0° 278° (W) 2,722 9.0 -16.0°
Reaches altitude 10° 17:56:31 10° 277° (W) 1,828 7.6 -16.3°
Maximum altitude 18:00:40 73° 194° (SSW) 579 3.7 -16.9°
Enters shadow 18:02:19 35° 116° (ESE) 902 4.2 -17.2°
